Meath Environmental Platform

Observations for Trim Patrick St

Time AQI Temp °C Hum % Pres Pa CO μg/m³ H₂S μg/m³ NO μg/m³ NO₂ μg/m³ O₃ μg/m³ SO₂ μg/m³ PM1 μg/m³ PM2.5 μg/m³ PM10 μg/m³
Wednesday 5 August 2026
14:44 2 22.8 56 71,379 0.03 3.9 2.74 13.01 72.46 5.59 2 6.07 6.67
14:43 2 22.7 54 71,556 0 5.57 2.82 15.33 71.72 5.23 2 6.19 6.8
14:42 2 22.6 53 71,603 0 4.25 2.92 14 73.51 5.12 2 6.21 6.83
14:41 2 22.6 53 71,644 0 1.82 2.87 12.62 71.6 4.84 2 6.21 6.83
14:40 2 22.5 53 71,676 0 0.34 2.9 12.65 66.58 4.44 2 6.2 6.82
14:38 2 22.5 54 71,998 0 0 3.11 10.98 62.22 4.74 2 6.14 6.76
14:37 2 22.4 54 72,243 0 0 3.17 12.18 61.59 4.09 2 6.13 6.74
14:36 2 22.3 55 72,396 0 0.49 3.25 10.62 60.49 4.58 2 6.12 6.73
14:35 2 22.3 55 72,595 0.01 0.33 3.5 12.96 58.34 4.29 2 6.09 6.69
14:30 2 22.1 55 72,534 0.03 7.5 3.06 13.05 72.06 4.4 2 6.09 6.69
14:29 2 22.1 55 72,308 0 9.8 3 31.78 68.92 4.11 2 6.1 6.71
14:28 2 22.1 54 71,935 0.02 3.64 2.82 23.27 67.57 3.04 2 6.17 6.78
14:27 2 22 53 71,854 0.02 0.84 2.81 12.32 68.17 3.66 2 6.21 6.83
14:26 2 22 54 72,061 0.03 0.53 2.83 13.09 66.16 3.01 2 6.19 6.81
14:25 2 21.8 54 72,314 0.02 0.54 2.7 12.41 64.68 2.75 2 6.14 6.75
14:24 2 21.7 55 72,654 0.01 3.89 2.76 13.27 71.77 3.77 2 6.08 6.69
14:23 2 21.5 56 72,945 0 2.55 2.87 13.46 76.15 3.28 2 6.02 6.62
14:22 2 21.4 56 73,212 0 0.53 2.91 11.72 78.38 3.78 2 6.05 6.65
14:21 2 21.3 55 73,481 0 0.95 2.84 11.98 78.81 3.79 2 6.1 6.71
14:20 2 21.3 54 73,799 0 2.25 2.66 11.3 67.26 3.43 2 6.17 6.78